FW7746 Weather Reports


Display with metric or nautical units.
time (UTC)temp
F
wind
direction
speed
MPH
gust
MPH
rain 1hr
in
rain 24hr
in
rain mn
in
humidity
%
barometer
mb
20260906004604 61 328 2.0 5.0 0.00 0.08 0.01 54 1014.7
20260906003604 61 326 4.0 8.0 0.00 0.08 0.01 53 1014.6
20260906003104 61 337 1.0 3.0 0.00 0.08 0.01 55 1014.9
20260906002604 61 328 2.0 8.0 0.00 0.08 0.01 55 1014.9
20260906002104 60 311 1.0 6.0 0.00 0.08 0.01 54 1014.9
20260906001604 60 322 3.0 8.0 0.00 0.08 0.01 54 1014.9
20260906001104 61 330 2.0 5.0 0.00 0.08 0.01 54 1014.9
20260906000604 61 326 2.0 3.0 0.00 0.08 0.01 54 1014.9
20260905235604 61 327 2.0 3.0 0.00 0.08 0.01 53 1014.9
20260905235104 61 328 2.0 3.0 0.00 0.08 0.01 52 1014.9
20260905234605 62 328 4.0 10.0 0.00 0.08 0.01 51 1014.9
20260905234104 62 320 1.0 3.0 0.00 0.08 0.01 51 1014.8
20260905233604 62 318 1.0 3.0 0.00 0.08 0.01 50 1014.7
20260905233104 63 273 1.0 3.0 0.00 0.08 0.01 48 1014.8
20260905232604 64 340 0.0 0.0 0.00 0.08 0.01 44 1014.7
20260905232104 65 350 0.0 0.0 0.00 0.08 0.01 43 1014.6
20260905231604 65 350 0.0 0.0 0.00 0.08 0.01 42 1014.6
20260905231104 65 344 0.0 0.0 0.00 0.08 0.01 40 1014.6
20260905230105 65 334 0.0 0.0 0.00 0.08 0.01 40 1014.7
20260905225604 65 334 0.0 0.0 0.00 0.08 0.01 42 1014.7
20260905224604 65 121 0.0 0.0 0.00 0.08 0.01 41 1014.9
20260905224104 67 123 0.0 1.0 0.00 0.08 0.01 40 1014.9
20260905223605 66 139 0.0 1.0 0.00 0.08 0.01 40 1015.0
20260905223104 66 140 0.0 0.0 0.00 0.08 0.01 41 1015.0
20260905222604 66 140 0.0 0.0 0.00 0.08 0.01 39 1015.1
20260905222105 68 74 2.0 7.0 0.00 0.08 0.01 38 1015.1
20260905221604 67 93 1.0 3.0 0.00 0.08 0.01 40 1015.2
20260905221104 66 174 0.0 2.0 0.00 0.08 0.01 42 1015.3
20260905220604 67 167 0.0 0.0 0.00 0.09 0.01 39 1015.4
20260905220105 68 82 0.0 2.0 0.00 0.10 0.01 41 1015.4
20260905215604 67 128 0.0 2.0 0.00 0.12 0.01 41 1015.3
20260905215104 66 138 0.0 0.0 0.00 0.12 0.01 43 1015.3
20260905214104 67 142 0.0 3.0 0.00 0.13 0.01 41 1015.3
20260905213604 66 84 0.0 3.0 0.00 0.13 0.01 44 1015.3
20260905213104 66 59 0.0 0.0 0.00 0.13 0.01 44 1015.4
20260905212604 67 59 0.0 0.0 0.00 0.13 0.01 44 1015.4
20260905212104 65 58 0.0 5.0 0.00 0.13 0.01 45 1015.5
20260905211604 65 68 0.0 2.0 0.00 0.13 0.01 45 1015.5
20260905211104 66 67 1.0 3.0 0.00 0.13 0.01 46 1015.6
20260905210604 64 83 0.0 2.0 0.00 0.13 0.01 49 1015.7
20260905205604 62 96 0.0 0.0 0.00 0.13 0.01 51 1015.9
20260905205104 63 96 1.0 3.0 0.00 0.13 0.01 46 1015.9
20260905204604 63 149 0.0 0.0 0.00 0.13 0.01 48 1015.9
20260905203604 65 156 0.0 0.0 0.00 0.13 0.01 45 1016.1
20260905203104 63 96 0.0 3.0 0.00 0.13 0.01 46 1016.1
20260905202604 66 108 1.0 3.0 0.00 0.13 0.01 44 1016.2
20260905201604 63 350 0.0 3.0 0.00 0.13 0.01 49 1016.2
20260905201104 63 226 1.0 5.0 0.00 0.13 0.01 46 1016.2
20260905200604 64 117 0.0 3.0 0.00 0.13 0.01 45 1016.2
20260905195604 63 89 0.0 3.0 0.00 0.13 0.01 48 1016.2
20260905195104 63 101 0.0 3.0 0.00 0.13 0.01 48 1016.4
20260905194105 64 137 0.0 0.0 0.00 0.13 0.01 47 1016.5
20260905193605 64 122 0.0 2.0 0.00 0.13 0.01 49 1016.5
20260905193104 63 126 0.0 3.0 0.00 0.13 0.01 49 1016.6
20260905192604 63 211 0.0 3.0 0.00 0.13 0.01 49 1016.5
20260905190605 59 216 0.0 2.0 0.00 0.13 0.01 58 1016.9
20260905190104 59 216 0.0 1.0 0.00 0.13 0.01 57 1016.9
20260905185605 60 218 0.0 0.0 0.00 0.13 0.01 55 1016.9
20260905185104 60 221 0.0 0.0 0.00 0.13 0.01 56 1016.9
20260905183604 59 254 0.0 0.0 0.00 0.13 0.01 61 1017.2
20260905183104 59 254 0.0 0.0 0.00 0.13 0.01 61 1017.1
20260905182605 58 256 0.0 3.0 0.00 0.13 0.01 64 1017.2
20260905182104 59 196 0.0 2.0 0.00 0.13 0.01 63 1017.2
20260905181605 58 207 0.0 0.0 0.00 0.13 0.01 64 1017.4
20260905181104 58 209 0.0 2.0 0.00 0.13 0.01 63 1017.4
20260905180604 58 211 1.0 3.0 0.00 0.13 0.01 62 1017.5
20260905180104 58 143 0.0 2.0 0.00 0.13 0.01 64 1017.6
20260905175605 57 144 0.0 0.0 0.00 0.13 0.01 65 1017.6
20260905175104 57 140 0.0 0.0 0.00 0.13 0.01 66 1017.7
20260905174604 56 128 0.0 2.0 0.00 0.13 0.01 67 1017.7
20260905174104 56 160 0.0 1.0 0.00 0.13 0.01 69 1017.8
20260905173604 55 179 0.0 2.0 0.00 0.13 0.01 69 1017.8
20260905173105 55 177 1.0 3.0 0.00 0.13 0.01 70 1017.8
20260905172604 55 135 1.0 3.0 0.00 0.13 0.01 70 1017.8
20260905171604 54 164 0.0 0.0 0.00 0.13 0.01 74 1017.9
20260905170604 53 164 0.0 1.0 0.00 0.13 0.01 78 1017.9
20260905170104 52 165 0.0 0.0 0.00 0.13 0.01 80 1017.9
20260905165604 51 165 0.0 0.0 0.00 0.13 0.01 82 1017.8
20260905165104 50 165 0.0 1.0 0.00 0.13 0.01 84 1017.8
20260905164604 49 204 0.0 1.0 0.00 0.13 0.01 86 1017.8
20260905163604 48 207 0.0 0.0 0.00 0.13 0.01 88 1017.9
20260905163104 47 207 0.0 0.0 0.00 0.13 0.01 89 1018.0
20260905162605 47 207 0.0 0.0 0.00 0.13 0.01 90 1018.0
20260905161604 46 207 0.0 0.0 0.00 0.13 0.01 91 1017.9
20260905160104 45 213 0.0 0.0 0.00 0.13 0.01 91 1018.1
20260905155605 45 213 0.0 0.0 0.00 0.13 0.01 91 1018.0
20260905155103 45 215 0.0 0.0 0.00 0.13 0.01 91 1017.9
20260905154603 45 215 0.0 0.0 0.00 0.13 0.01 91 1018.0
20260905154103 44 215 0.0 0.0 0.00 0.13 0.01 92 1018.0
20260905153603 44 215 0.0 0.0 0.00 0.13 0.01 92 1018.0
20260905153103 44 215 0.0 0.0 0.00 0.13 0.01 92 1017.9
20260905152603 43 215 0.0 0.0 0.00 0.13 0.01 92 1018.1
20260905151603 43 215 0.0 0.0 0.00 0.13 0.01 92 1018.2
20260905151103 43 219 0.0 0.0 0.00 0.13 0.01 92 1018.2
20260905150603 43 220 0.0 0.0 0.00 0.13 0.01 92 1018.1
20260905145603 43 220 0.0 0.0 0.00 0.13 0.01 93 1018.2
20260905145102 43 220 0.0 1.0 0.00 0.13 0.01 93 1018.1
20260905144603 43 224 0.0 0.0 0.00 0.13 0.01 93 1018.1
20260905144103 43 225 0.0 1.0 0.00 0.13 0.01 93 1018.2
20260905143603 42 223 0.0 0.0 0.00 0.13 0.01 93 1018.1
20260905143102 42 219 0.0 3.0 0.00 0.13 0.01 93 1018.0
20260905142603 42 190 0.0 0.0 0.00 0.13 0.01 94 1017.9
20260905142103 42 190 0.0 0.0 0.00 0.13 0.01 93 1017.8
20260905141603 42 189 0.0 0.0 0.00 0.13 0.01 93 1017.7
20260905141103 42 189 0.0 0.0 0.00 0.13 0.01 93 1017.7
20260905140603 42 192 0.0 1.0 0.00 0.13 0.01 93 1017.6
20260905135603 42 190 0.0 0.0 0.00 0.13 0.01 94 1017.6
20260905135103 42 200 0.0 1.0 0.00 0.13 0.01 94 1017.6
20260905134603 42 206 0.0 0.0 0.00 0.13 0.01 94 1017.5
20260905134103 42 206 0.0 0.0 0.00 0.13 0.01 94 1017.5
20260905133603 42 206 0.0 0.0 0.00 0.13 0.01 93 1017.4
20260905133103 42 206 0.0 0.0 0.00 0.13 0.01 93 1017.4
20260905132603 43 206 0.0 0.0 0.00 0.13 0.01 93 1017.4
20260905132103 43 206 0.0 0.0 0.00 0.13 0.01 93 1017.4
20260905131103 43 206 0.0 0.0 0.00 0.13 0.01 93 1017.5
20260905130603 43 206 0.0 1.0 0.00 0.13 0.01 93 1017.4
20260905125603 44 207 0.0 3.0 0.00 0.13 0.01 93 1017.4
20260905125102 44 214 0.0 2.0 0.00 0.13 0.01 93 1017.4
20260905124603 44 241 0.0 0.0 0.00 0.13 0.01 94 1017.3
20260905123603 44 178 0.0 0.0 0.00 0.13 0.01 94 1017.4
20260905123103 44 177 0.0 0.0 0.00 0.13 0.01 94 1017.4
20260905122103 44 177 0.0 1.0 0.00 0.13 0.01 94 1017.5
20260905121603 44 177 0.0 1.0 0.00 0.13 0.01 94 1017.5
20260905120603 44 181 0.0 0.0 0.00 0.13 0.01 94 1017.5
20260905120103 43 181 0.0 0.0 0.00 0.13 0.01 94 1017.5
20260905115103 43 181 0.0 0.0 0.00 0.13 0.01 94 1017.5
20260905114603 43 181 0.0 0.0 0.00 0.13 0.01 94 1017.5
20260905113604 43 181 0.0 0.0 0.00 0.13 0.01 94 1017.4
20260905113103 43 181 0.0 0.0 0.00 0.13 0.01 94 1017.4
20260905112603 43 181 0.0 0.0 0.00 0.13 0.01 94 1017.3
20260905112103 43 181 0.0 0.0 0.00 0.13 0.01 94 1017.4
20260905111103 43 181 0.0 0.0 0.00 0.13 0.01 94 1017.5
20260905110602 43 181 0.0 1.0 0.00 0.13 0.01 94 1017.4
20260905105602 43 181 0.0 2.0 0.00 0.13 0.01 94 1017.6
20260905105103 43 188 0.0 0.0 0.00 0.13 0.01 94 1017.6
20260905104603 43 188 0.0 0.0 0.00 0.13 0.01 94 1017.6
20260905104103 43 188 0.0 0.0 0.00 0.13 0.01 94 1017.6
20260905103603 42 188 0.0 1.0 0.00 0.13 0.01 94 1017.6
20260905103103 43 246 0.0 0.0 0.00 0.13 0.01 94 1017.6
20260905102102 43 234 0.0 0.0 0.00 0.13 0.01 94 1017.5
20260905101603 43 235 0.0 0.0 0.00 0.13 0.01 94 1017.4
20260905101103 43 235 0.0 0.0 0.00 0.13 0.01 94 1017.5
20260905100603 43 235 0.0 0.0 0.00 0.13 0.01 95 1017.5
20260905100104 43 235 0.0 0.0 0.00 0.13 0.01 95 1017.5
20260905095603 43 235 0.0 0.0 0.00 0.13 0.01 95 1017.6
20260905094603 43 235 0.0 0.0 0.01 0.13 0.01 95 1017.5
20260905094103 43 243 0.0 0.0 0.01 0.13 0.01 95 1017.5
20260905093603 42 243 0.0 0.0 0.01 0.13 0.01 95 1017.5
20260905093103 42 243 0.0 1.0 0.01 0.13 0.01 95 1017.5
20260905092603 42 251 0.0 0.0 0.01 0.13 0.01 95 1017.5
20260905092103 42 251 0.0 3.0 0.01 0.13 0.01 95 1017.4
20260905091603 41 279 0.0 0.0 0.01 0.13 0.01 95 1017.4
20260905090603 41 281 0.0 1.0 0.01 0.13 0.01 95 1017.3
20260905090103 41 281 0.0 0.0 0.01 0.13 0.01 95 1017.3
20260905085103 41 289 0.0 3.0 0.00 0.12 0.00 95 1017.2
20260905084603 41 315 0.0 3.0 0.00 0.12 0.00 94 1017.1
20260905084103 41 315 0.0 0.0 0.00 0.12 0.00 94 1017.1
20260905083103 41 315 0.0 0.0 0.00 0.12 0.00 95 1017.2
20260905082603 41 315 0.0 0.0 0.00 0.12 0.00 95 1017.2
20260905082103 41 315 0.0 0.0 0.00 0.12 0.00 95 1017.0
20260905081603 41 315 0.0 0.0 0.00 0.12 0.00 95 1017.1
20260905080602 42 315 0.0 0.0 0.00 0.12 0.00 94 1016.9
20260905075603 42 315 0.0 0.0 0.00 0.12 0.00 94 1016.9
20260905074603 42 315 0.0 0.0 0.00 0.12 0.00 94 1016.9
20260905073603 42 315 0.0 0.0 0.00 0.12 0.00 94 1016.8
20260905073103 42 315 0.0 0.0 0.00 0.12 0.00 94 1016.6
20260905072603 42 315 0.0 0.0 0.00 0.12 0.00 94 1016.5
20260905072102 42 315 0.0 0.0 0.00 0.12 0.00 94 1016.5
20260905071603 42 315 0.0 0.0 0.00 0.12 0.00 94 1016.5
20260905071103 42 315 0.0 0.0 0.00 0.12 0.00 94 1016.4
20260905070603 42 315 0.0 0.0 0.00 0.12 0.00 94 1016.3
20260905070104 42 315 0.0 0.0 0.00 0.12 0.00 94 1016.4
20260905065603 42 315 0.0 0.0 0.00 0.12 0.12 94 1016.4
20260905065104 43 315 0.0 0.0 0.00 0.12 0.12 94 1016.4
20260905064603 43 315 0.0 0.0 0.00 0.12 0.12 94 1016.3
20260905064103 43 315 0.0 0.0 0.00 0.12 0.12 94 1016.0
20260905063603 43 315 0.0 0.0 0.00 0.12 0.12 94 1016.0
20260905063103 43 315 0.0 0.0 0.00 0.12 0.12 94 1016.1
20260905062603 44 315 0.0 0.0 0.00 0.12 0.12 94 1016.0
20260905061604 44 315 0.0 0.0 0.00 0.12 0.12 94 1016.0
20260905060103 45 315 0.0 0.0 0.00 0.12 0.12 94 1016.0
20260905055603 45 315 0.0 0.0 0.00 0.12 0.12 94 1015.9
20260905055103 45 315 0.0 0.0 0.00 0.12 0.12 94 1016.0
20260905054603 45 315 0.0 0.0 0.00 0.12 0.12 94 1016.0
20260905054103 45 315 0.0 0.0 0.00 0.12 0.12 94 1016.0
20260905053603 45 315 0.0 0.0 0.00 0.12 0.12 94 1016.1
20260905053102 45 315 0.0 0.0 0.00 0.12 0.12 94 1016.2
20260905052103 45 315 0.0 0.0 0.00 0.12 0.12 94 1016.2
20260905051603 45 315 0.0 0.0 0.00 0.12 0.12 94 1016.2
20260905051103 45 315 0.0 0.0 0.00 0.12 0.12 94 1016.1
20260905050603 45 315 0.0 0.0 0.00 0.12 0.12 93 1016.0
20260905050103 46 315 0.0 0.0 0.00 0.12 0.12 93 1015.9
20260905045603 46 315 0.0 0.0 0.00 0.12 0.12 93 1015.9
20260905045103 46 315 0.0 0.0 0.00 0.12 0.12 93 1015.8
20260905044603 46 315 0.0 0.0 0.00 0.12 0.12 93 1015.8
20260905043603 46 315 0.0 0.0 0.00 0.12 0.12 93 1015.9
20260905043103 47 315 0.0 0.0 0.00 0.12 0.12 93 1015.9
20260905042603 47 315 0.0 0.0 0.00 0.12 0.12 93 1016.0
20260905042103 47 315 0.0 0.0 0.00 0.12 0.12 92 1015.9
20260905041604 47 315 0.0 0.0 0.00 0.12 0.12 92 1015.9
20260905040602 48 315 0.0 0.0 0.01 0.12 0.12 92 1015.9
20260905040104 48 315 0.0 0.0 0.01 0.12 0.12 92 1015.9
20260905035603 48 315 0.0 0.0 0.02 0.12 0.12 92 1015.9
20260905035104 49 315 0.0 0.0 0.02 0.12 0.12 92 1016.0
20260905034603 49 315 0.0 0.0 0.03 0.12 0.12 91 1016.1
20260905034103 49 315 0.0 0.0 0.03 0.12 0.12 91 1016.0
20260905033603 49 315 0.0 0.0 0.04 0.12 0.12 91 1016.0
20260905032603 49 315 0.0 0.0 0.07 0.12 0.12 91 1015.8
20260905032103 49 315 0.0 0.0 0.07 0.12 0.12 91 1015.6
20260905031603 49 315 0.0 0.0 0.07 0.12 0.12 91 1015.4
20260905031104 49 315 0.0 0.0 0.06 0.11 0.11 91 1015.4
20260905030604 49 315 0.0 0.0 0.06 0.11 0.11 91 1015.4
20260905030104 49 315 0.0 0.0 0.06 0.11 0.11 91 1015.5
20260905025604 49 315 0.0 0.0 0.05 0.10 0.10 90 1015.4
20260905025103 49 315 0.0 0.0 0.05 0.10 0.10 90 1015.4
20260905024603 50 315 0.0 0.0 0.04 0.09 0.09 90 1015.5
20260905024103 50 315 0.0 0.0 0.04 0.09 0.09 89 1015.5
20260905023603 50 315 0.0 0.0 0.03 0.08 0.08 89 1015.4
20260905022103 51 315 0.0 0.0 0.00 0.05 0.05 85 1015.3
20260905021603 51 315 0.0 0.0 0.00 0.05 0.05 85 1015.1
20260905021103 51 315 0.0 0.0 0.00 0.05 0.05 85 1014.9
20260905020604 51 315 0.0 0.0 0.00 0.05 0.05 82 1014.9
20260905020105 51 315 0.0 0.0 0.00 0.05 0.05 82 1014.8
20260905015603 52 315 0.0 3.0 0.00 0.05 0.05 81 1014.8
20260905015103 52 337 0.0 0.0 0.00 0.05 0.05 81 1014.8
20260905014603 52 337 0.0 3.0 0.00 0.05 0.05 81 1014.8
20260905014103 52 336 0.0 1.0 0.00 0.05 0.05 80 1014.7
20260905013603 52 342 0.0 2.0 0.00 0.05 0.05 79 1014.6
20260905012603 52 342 0.0 0.0 0.00 0.05 0.05 77 1014.6
20260905012103 52 342 0.0 0.0 0.00 0.05 0.05 76 1014.4
20260905011603 52 342 0.0 0.0 0.00 0.05 0.05 76 1014.4
20260905011103 52 342 0.0 0.0 0.00 0.05 0.05 74 1014.3
20260905010603 52 342 0.0 1.0 0.00 0.05 0.05 74 1014.2
20260905010103 53 62 0.0 2.0 0.00 0.05 0.05 75 1014.1
20260905005603 53 99 0.0 1.0 0.00 0.05 0.05 74 1014.1